Location: Plainartige
(45.6866°N, 1.7993°E)
Time: 18:43:56
(UTC+00:00)

USA 306 - Pass Details

Date: 03 March 2021
Orbit: 564 x 577 km, 54.0° (Epoch: 13 April)

Event Time Altitude Azimuth Distance (km) Brightness Sun altitude
Rises 18:18:31 0° 275° (W) 2,773 8.8 -7.1°
Reaches altitude 10° 18:21:00 10° 286° (WNW) 1,874 7.0 -7.5°
Maximum altitude 18:24:46 30° 348° (NNW) 1,045 4.4 -8.2°
Drops below altitude 10° 18:28:31 10° 50° (NE) 1,869 5.1 -8.8°
Enters shadow 18:29:14 - 55° (NE) 2,118 5.3 -9.0°
